Retour au catalogue

IRIDIUM 33 DEB

ActifPO
NORAD 33866·DEBRIS·🇺🇸 United States

Lancé Sep 14, 1997 depuis Baikonur Cosmodrome

Loading…

Prochains Passages (prochaines 24 heures)

TLE

FraisSource: Space-Track

Époque: Sep 14, 2026, 04:22 UTC

1 33866U 97051AK  26257.18244112  .00001714  00000-0  65701-3 0  9998
2 33866  86.3054 336.3687 0109853 356.6797  31.2386 14.26789892907363

Suivez IRIDIUM 33 DEB en temps réel avec AllMySat

Download on the App Store